This demonstration page uses our WeatherBlox Daily Observations layout. Learn more.

Left ArrowRight Arrow

Hourly Observations for July 16, 2021

Temp ( °F °C ) Dew Point ( °F °C ) Humidity (%) Winds ( mph kmh ) Pressure ( in mb ) Visibility ( mi km ) Precip ( " mm )
12:15 am 00:15 Mostly Cloudy with Mist and Fog 68 20.2 67 19.7 97 97 ENE 5 7 29.93 1013 5 8 0.00 0.00
12:35 am 00:35 Mostly Cloudy with Mist and Fog 68 20.2 67 19.7 97 97 E 5 7 29.93 1013 5 8 0.00 0.00
12:55 am 00:55 Cloudy with Mist and Fog 69 20.3 68 19.8 97 97 E 6 9 29.91 1013 5 8 0.00 0.00
1:15 am 01:15 Cloudy with Mist and Fog 69 20.6 68 20.1 97 97 E 6 9 29.91 1013 5 8 0.00 0.00
1:35 am 01:35 Cloudy with Mist and Fog 69 20.7 68 20.2 97 97 E 6 9 29.91 1013 5 8 0.00 0.00
1:55 am 01:55 Cloudy with Mist and Fog 69 20.7 68 20.2 97 97 E 8 13 29.91 1013 5 8 0.00 0.00
2:15 am 02:15 Cloudy with Mist and Fog 69 20.7 68 20.2 97 97 ESE 9 15 29.91 1013 4 6 0.00 0.00
2:35 am 02:35 Cloudy with Mist and Fog 69 20.5 68 20 97 97 E 8 13 29.91 1013 3 4 0.00 0.00
2:55 am 02:55 Cloudy with Mist and Fog 69 20.6 68 20.1 97 97 ESE 7 11 29.91 1013 3 4 0.00 0.00
3:15 am 03:15 Cloudy with Mist and Fog 69 20.5 68 20.1 98 98 ESE 9 15 29.91 1013 3 5 0.00 0.00
3:35 am 03:35 Cloudy with Mist and Fog 69 20.5 68 20 97 97 ESE 7 11 29.91 1013 1 2 0.00 0.00
3:55 am 03:55 Cloudy with Mist and Fog 69 20.3 68 20 98 98 SE 8 13 29.91 1013 3 5 0.00 0.00
4:15 am 04:15 Cloudy with Mist and Fog 68 20.2 68 19.8 98 98 SE 6 9 29.92 1013 3 4 0.00 0.00
4:35 am 04:35 Cloudy with Mist and Fog 68 20 67 19.6 98 98 SE 5 7 29.92 1013 5 8 0.00 0.00
4:55 am 04:55 Cloudy with Mist and Fog 68 20 67 19.5 97 97 ESE 5 7 29.92 1013 5 8 0.00 0.00
5:15 am 05:15 Cloudy with Mist and Fog 68 20 67 19.5 97 97 ESE 5 7 29.92 1013 4 6 0.00 0.00
5:35 am 05:35 Cloudy with Mist and Fog 68 20 67 19.5 97 97 E 3 6 29.92 1013 5 8 0.00 0.00
5:55 am 05:55 Cloudy with Mist and Fog 68 20 67 19.5 97 97 Calm 29.93 1013 5 8 0.00 0.00
6:15 am 06:15 Cloudy with Mist and Fog 68 20 67 19.5 97 97 Calm 29.93 1013 5 8 0.00 0.00
6:35 am 06:35 Cloudy with Mist and Fog 68 20 67 19.5 97 97 ESE 3 6 29.94 1014 5 8 0.00 0.00
6:55 am 06:55 Cloudy with Mist and Fog 68 20 67 19.5 97 97 E 6 9 29.94 1014 4 6 0.00 0.00
7:15 am 07:15 Cloudy with Mist and Fog 68 20 67 19.5 97 97 E 6 9 29.94 1014 3 4 0.00 0.00
7:35 am 07:35 Cloudy with Mist and Fog 68 20 67 19.5 97 97 E 7 11 29.94 1014 3 5 0.00 0.00
7:55 am 07:55 Cloudy with Mist and Fog 68 20.2 67 19.7 97 97 ESE 7 11 29.94 1014 5 8 0.00 0.00
8:15 am 08:15 Cloudy with Mist and Fog 69 20.4 67 19.7 96 96 E 9 15 29.93 1014 4 6 0.00 0.00
8:35 am 08:35 Cloudy with Mist and Fog 68 20.2 67 19.6 96 96 ESE 8 13 29.95 1014 3 4 0.00 0.00
8:55 am 08:55 Cloudy with Mist and Fog 69 20.5 68 20 97 97 SE 7 11 29.94 1014 5 8 0.00 0.00
9:15 am 09:15 Cloudy with Mist and Fog 69 20.6 68 19.9 96 96 SE 6 9 29.95 1014 5 8 0.00 0.00
9:37 am 09:37 Partly Cloudy with Mist and Fog 70 21 68 20 94 94 ESE 7 11 29.96 1015 3 5 0.00 0.00
9:55 am 09:55 Cloudy with Mist and Fog 69 20.6 68 20 96 96 ESE 7 11 29.96 1015 2 3 0.00 0.00
10:15 am 10:15 Cloudy with Mist and Fog 69 20.7 68 20.1 96 96 ESE 7 11 29.96 1015 3 5 0.00 0.00
10:35 am 10:35 Cloudy with Mist and Fog 70 21 69 20.4 96 96 ESE 7 11 29.95 1014 4 6 0.00 0.00
10:55 am 10:55 Cloudy 72 22.1 69 20.8 92 92 ESE 6 9 29.94 1014 7 11 0.00 0.00
11:15 am 11:15 Cloudy 73 22.6 69 20.5 88 88 E 5 7 29.94 1014 10 16 0.00 0.00
11:35 am 11:35 Cloudy 74 23.1 68 20.2 84 84 SE 7 11 29.93 1014 10 16 0.00 0.00
11:55 am 11:55 Cloudy 74 23.1 69 20.4 85 85 SE 8 13 29.93 1014 10 16 0.00 0.00
12:10 pm 12:10 Cloudy 73 23 69 20.3 85 85 ESE 9 15 29.92 1013 10 16 0.00 0.00
12:35 pm 12:35 Cloudy 74 23.5 69 20.3 82 82 SE 8 13 29.93 1013 10 16 0.00 0.00
12:55 pm 12:55 Cloudy 75 24 68 20 78 78 SE 3 6 29.92 1013 10 16 0.00 0.00
1:18 pm 13:18 Cloudy 75 24 68 20 78 78 Calm 29.92 1013 10 16 0.00 0.00
1:55 pm 13:55 Cloudy 78 25.4 69 20.7 75 75 E 3 6 29.90 1013 10 16 0.00 0.00
2:16 pm 14:16 Cloudy 79 26 70 21 74 74 Calm 29.90 1012 10 16 0.00 0.00
2:38 pm 14:38 Cloudy 79 26 68 20 70 70 Calm 29.89 1012 10 16 0.00 0.00
2:50 pm 14:50 Mostly Cloudy 80 26.6 69 20.4 69 69 S 3 6 29.88 1012 10 16 0.00 0.00
3:15 pm 15:15 Mostly Cloudy 81 27 70 21 70 70 ESE 5 7 29.88 1012 10 16 0.00 0.00
4:00 pm 16:00 Partly Cloudy 81 27.2 69 20.8 68 68 E 5 7 29.87 1011 10 16 0.00 0.00
4:10 pm 16:10 Partly Cloudy 81 27.2 69 20.5 67 67 E 3 6 29.87 1011 10 16 0.00 0.00
4:35 pm 16:35 Partly Cloudy 82 27.7 69 20.7 66 66 ESE 5 7 29.86 1011 10 16 0.00 0.00
4:50 pm 16:50 Partly Cloudy 82 27.5 70 21 68 68 E 6 9 29.86 1011 10 16 0.00 0.00
5:17 pm 17:17 Sunny 82 28 70 21 66 66 ESE 8 13 29.85 1011 10 16 0.00 0.00
5:35 pm 17:35 Sunny 82 28 69 20.7 65 65 E 8 13 29.85 1011 10 16 0.00 0.00
5:55 pm 17:55 Sunny 82 28 70 21 66 66 SE 8 13 29.84 1011 10 16 0.00 0.00
6:20 pm 18:20 Sunny 82 28 69 20.8 65 65 E 8 13 29.84 1011 10 16 0.00 0.00
6:50 pm 18:50 Sunny 82 27.5 70 20.9 67 67 E 8 13 29.84 1010 10 16 0.00 0.00
7:15 pm 19:15 Sunny 81 27.2 70 20.9 69 69 E 8 13 29.84 1010 10 16 0.00 0.00
7:38 pm 19:38 Sunny 81 27 70 21 70 70 E 8 13 29.83 1010 10 16 0.00 0.00
7:55 pm 19:55 Sunny 79 26.2 71 21.5 75 75 E 7 11 29.85 1011 10 16 0.00 0.00
8:35 pm 20:35 Sunny 77 25 71 21.5 81 81 E 8 13 29.86 1011 10 16 0.00 0.00
8:55 pm 20:55 Sunny 75 24.1 71 21.4 85 85 E 7 11 29.86 1011 10 16 0.00 0.00
9:15 pm 21:15 Clear 74 23.5 70 21.3 88 88 E 9 15 29.88 1012 10 16 0.00 0.00
9:35 pm 21:35 Clear 73 23 70 21.1 89 89 ESE 10 17 29.88 1012 10 16 0.00 0.00
9:55 pm 21:55 Clear 73 22.7 70 21.1 91 91 ESE 9 15 29.90 1012 10 16 0.00 0.00
10:15 pm 22:15 Clear 73 22.5 70 21 91 91 ESE 8 13 29.91 1013 10 16 0.00 0.00
10:35 pm 22:35 Clear 72 22.2 69 20.8 92 92 SE 7 11 29.92 1013 10 16 0.00 0.00
10:55 pm 22:55 Clear 71 21.9 69 20.5 92 92 SE 6 9 29.92 1013 10 16 0.00 0.00
11:15 pm 23:15 Clear 71 21.5 69 20.4 93 93 ESE 6 9 29.93 1014 10 16 0.00 0.00
11:35 pm 23:35 Clear 70 21.3 68 20.2 93 93 SE 7 11 29.93 1013 10 16 0.00 0.00
11:55 pm 23:55 Clear 70 21.1 68 20 93 93 ESE 8 13 29.93 1013 10 16 0.00 0.00

Powered by AerisWeather